STARLINK-32334, 62023

Orbit data source: Space-Track

STARLINK-32334, 62023 is a payload satellite owned by SpaceX/Seattle (US) in LEO that was launched on Mon, 18 Nov 2024 UTC via an FALCON 9 launch vehicle from the Air Force Western Test Range (AFWTR). Payload-class satellites include a variety of spacecraft equipped with specific instruments for various scientific and technological missions. These include communications satellites like Starlink; space stations such as the ISS; scientific satellites like the Hubble; Earth observation satellites from companies like Planet Labs, Umbra, and HawkEye 360; GPS; miniature CubeSats for education and research; and military/defense satellites.

Loading next visibility...
Identifier
62023, 2024-213R
Orbit
LEO
Country
Flag of USUS
Related business
Manufacturer
SpaceX/Seattle
Mission
Operational Commercial Communications
Bus & Motor
STARLINK V2M, Unknown motor
Mass
730 kg wet, ~700 kg dry
Launch date (UTC)
2024-11-18 (1 year ago)
Launch vehicle
FALCON 9
Launch site
Air Force Western Test Range (AFWTR)
Object type
Payload
Rocket body
Debris
Shape & HBR
Box + 2 Pan, 17.7 m
Radar Cross Section
33.884 m², Large (>1 m²)

Expand to show TLE details & history
Last TLE update: 7 hours ago

TLE from 7 hours ago
0 STARLINK-32334
1 62023U 24213R   26123.58489905  .00036525  00000-0  12382-2 0  9996
2 62023  53.1581 272.8451 0000987  98.5674 261.5439 15.30227549 81568
Epoch: 2026-05-03T14:02Z
TLE epoch observation values (Epoch: 2026-05-03T14:02:15.277Z)
Latitude
-0.00001°
Longitude
-159.20491°
Altitude
476.132 km
Speed
7.629 km/s
True Right ascension
18h 11m 22s
True Declination
0° 00' 00"
Sunlit
Object was in full shadow at epoch
Visualization orbit readout
Latitude
Unknown
Longitude
Unknown
Altitude
Unknown
Speed
Unknown
Apparent Right ascension
Unknown
Apparent Declination
Unknown
Sunlit
N/A
Visualization observer readout
Local Sidereal Time
04:22:28
Azimuth
Unknown
Elevation
Unknown
Doppler factor
Unknown
Orbital elements
Apogee altitude
476.066 km
Perigee altitude
474.713 km
Semi-major axis
6,853.527 km
Eccentricity
0.0001
Inclination
53.1581°
RAAN
272.8451°
Arg. of periapsis
98.5674°
True anomaly
261.53271°
Mean anomaly
261.5439°
Eccentric anomaly
261.53831°
Mean motion
3.82536 °/min
Orbital period
94.11 mins
BSTAR
0.0012382
Loading maneuver chart data...
Computing Atmospheric mass density...
Loading historical data...
Loading historical data...
Loading historical data...
Loading historical data...
Loading historical data...
Loading historical data...
Loading historical data...

Documentation

Showing up to 5 results
|